Ana Sayfa
METAR-TAF:

METAR-TAF

Havaalanları :

Town MET

Windhoek, Namibya

Enlem: 22-34S, Boylam: 017-06E, yükseklik: 1725 m

Güncel hava durumu gözlemi

Rapor saat 03:00 UTC de 56 dakika önce yapıldı.
Rüzgar doğudan 4 kt
Sıcaklık 13°C
Nem 41%
Basınç 1027 hPa

METAR: FYWW 250300Z AUTO 10004KT //// // ////// 13/M00 Q1027

Saat: 04:56 (03:56 UTC)


TAF: eksik

4.000'den fazla havaalanı için hava durumu gözlemleri ve tahminleri (METAR ve TAF raporları).

Kullanılabilir istasyonlar harita üzerinde sarı ve kırmızı noktalarla gösterilir.

İstasyonun adını görmek için fareyi noktanın üzerinde gezdirin.

Sonrasında hava gözlem ve tahminlerini görmek için tıklayın.

Haritayı değiştirmek için: yaklaştırmak için siyah artı işaretli yeşil düğmeye ve uzaklaştırmak için de eksi işaretli düğmeye hızla tıklayın; bitişik haritalar için yeşil okları kullanın.


METAR-TAF: